Flag for U.S.A. Weather past 2 weeks in Washington DC, District of Columbia, U.S.A.

Now
46 °F

Overcast.


Feels Like: 43 °F
Forecast: 43 / 63 °F
Wind: 6 mph from Northwest

Location: Reagan National Airport

Current Time: Apr 26, 2015 at 7:47:34 AM

Latest Report: Apr 26, 2015 at 6:52 AM


Visibility: 10 mi

Pressure: 29.69 "Hg

Humidity: 79%

Dew point: 40 °F

Location of Washington DCLocation

Historic Weather in Washington DC — Graph

°F

Washington DC temperature yesterday

Maximum temperature yesterday: 53 °F (at 2:52 PM)
Minimum temperature yesterday: 45 °F (at 9:52 PM)
Average temperature yesterday: 49 °F

Past Weeks' High & Low Weather Summary

 TemperatureHumidityPressure
High83 °F (Apr 18, 4:52 PM)90% (Apr 14, 7:52 AM)30.43 "Hg (Apr 14, 7:52 AM)
Low40 °F (Apr 24, 5:52 AM)19% (Apr 24, 5:52 PM)29.50 "Hg (Apr 20, 7:52 PM)
Average61 °F52%30.01 "Hg
* Reported Apr 11 6:52 AM — Apr 26 6:52 AM, Washington DC, Weather by CustomWeather, © 2015

Note: Actual official high and low records may vary slightly from our data, if they occured in-between our weather recording intervals... More about our weather records

Advertising

Washington DC weather history for previous 24 hours

 ConditionsComfort  
Time TempWeatherWind HumidityBarometerVisibility
6:52 AM
Sun, Apr 26
46 °FOvercast.6 mph79%29.69 "Hg10 mi
5:52 AM46 °FOvercast.6 mph79%29.69 "Hg10 mi
4:52 AM46 °FMostly cloudy.8 mph83%29.69 "Hg9 mi
3:52 AM46 °FOvercast.5 mph77%29.70 "Hg10 mi
2:52 AM46 °FOvercast.No wind77%29.69 "Hg10 mi
1:52 AM45 °FOvercast.7 mph82%29.70 "Hg10 mi
12:52 AM46 °FOvercast.3 mph77%29.72 "Hg10 mi
11:52 PM
Sat, Apr 25
45 °FLight rain. Mostly cloudy.6 mph82%29.74 "Hg8 mi
10:52 PM45 °FLight rain. Overcast.10 mph82%29.76 "Hg9 mi
9:52 PM45 °FLight rain. Overcast.12 mph82%29.77 "Hg9 mi
8:52 PM46 °FLight rain. Mostly cloudy.5 mph73%29.76 "Hg10 mi
7:52 PM46 °FLight rain. Mostly cloudy.5 mph77%29.78 "Hg7 mi
6:52 PM47 °FLight rain. Overcast.7 mph74%29.79 "Hg8 mi
5:52 PM49 °FLight rain. Overcast.9 mph64%29.79 "Hg10 mi
4:52 PM52 °FMostly cloudy.8 mph47%29.80 "Hg10 mi
3:52 PM53 °FMostly cloudy.8 mph47%29.83 "Hg10 mi
2:52 PM53 °FOvercast.3 mph45%29.85 "Hg10 mi
1:52 PM52 °FOvercast.5 mph49%29.88 "Hg10 mi
12:52 PM51 °FOvercast.7 mph50%29.91 "Hg10 mi
11:52 AM51 °FOvercast.8 mph46%29.94 "Hg10 mi
10:52 AM50 °FOvercast.3 mph48%29.96 "Hg10 mi
9:52 AM50 °FOvercast.7 mph46%29.97 "Hg10 mi
8:52 AM49 °FMostly cloudy.3 mph50%29.99 "Hg10 mi
7:52 AM48 °FMostly cloudy.6 mph48%29.98 "Hg10 mi
Weather by CustomWeather, © 2015

See weather overviewHow to use our weather pages